SL-14 R/B

Satellite information

Favourite Embed

Satellite Type and Status

ROCKET BODYIN ORBIT

Key statistics

Satellite SL-14 R/B at a glance.

Uptime

10848

Days in orbit

Revolutions

≈ 12.6

Per day

Orbit

LEO

Low Earth Orbit

Inclination

82.6

Latest

Satellite identification and parameters

Extended collection of information and parameters for SL-14 R/B.

Object identification

Identified? True

Debris? False

Object name: SL-14 R/B

International designator: 1996-009G

Object number (NORAD): 23793

Object ID (CCSDS): 23793

Country: COMMONWEALTH OF INDEPENDENT STATES (CIS)

Current information (Y/N): Y

RCS size: LARGE

Orbital parameters

Period: 114.733 minutes

Inclination: 82.573 deg

SMA: 7821.417 km

Apoapsis: 1479.126 km

Periapsis: 1407.438 km

RAAN: 192.5601 deg

Eccentricy: 0.0045828

Argument of periapsis: 119.3467 deg

Mean anomaly: 306.0046 deg

Mean motion: 12.55089246 rev/day

Mean motion (dot): 0.00000008 rev/day2

B* drag term: -0.000014708 1/REarth

Two-line elements (TLE)

Creation date: Oct. 31, 2025, 11:16 p.m.

Reference frame: TEME

Reference center: EARTH

Epoch: Oct. 31, 2025, 7:11 p.m. UTC

TLE line 0: 0 SL-14 R/B

TLE line 1: 1 23793U 96009G 25304.79954556 .00000008 00000-0 -14708-4 0 9995

TLE line 2: 2 23793 82.5730 192.5601 0045828 119.3467 306.0046 12.55089246360700

Live tracking on map

Real-time ground track for satellite SL-14 R/B.

In-orbit conjunctions

A list of the most updated potential collisions computed for object SL-14 R/B.

Target Orbit TCA Probability of collision Miss distance Type
COSMOS 2201 LEO 2025-07-02 05:37:30 0.0002457806 70.0 (m) PAYLOAD

Associated space launch

Gonets- satellite were the civilian derivate of the military Strela-3 satellite system. The Gonets system was offered to support international health organizations to meet their global communications needs for the transfer of medical data and records to remote sites. Strela-3 was the second generation of Russian strategic store-dump military communications satellite. Development of this generation to replace the first generation Strela-1M and Strela-2M satellites began in 1973.

SL-14 R/B was lifted into orbit during the mission ‘Tsiklon-3 | Gonets-D 319 to 321 & Strela-3 113 to 115’, on board a Tsiklon-3 space rocket.

The launch took place on Feb. 19, 1996, 12:58 a.m. from 32/1.

For more information about the launch, click the button.

Launch to space Tsiklon-3 | Gonets-D 319 to 321 & Strela-3 113 to 115
Tsiklon-3 | Gonets-D 319 to 321 & Strela-3 113 to 115

Agency: N/A

Status: Launch Successful

Launch date: Feb. 19, 1996, 12:58 a.m. UTC

Rocket: Tsiklon-3

Launch pad: 32/1

Location: Plesetsk Cosmodrome, Russian Federation

...

Latest news about this satellite

There are no fresh news available about this satellite. Check back as we update our databases every day.


Newsletter sign-up

Weekly statistics, charts and insights to help you stay on top of the space industry.